Tracking 25709 objects as of 24-May-2022
HD Live streaming from Space Station
objects crossing your sky now

COSMOS 1275 DEB

Track COSMOS 1275 DEB now!
10-day predictions


NORAD ID: 42232
Int'l Code: 1981-053UY
Perigee: 924.2 km
Apogee: 1,204.8 km
Inclination: 83.0 °
Period: 106.3 minutes
Semi major axis: 7435 km
RCS: Unknown
Launch date: June 4, 1981
Source: Commonwealth of Independent States (former USSR) (CIS)
Launch site: PLESETSK MISSILE AND SPACE COMPLEX (PKMTR)

Note: This is SATELLITE DEBRIS
aabbcc
Your satellite tracking list
Your tracking list is empty




NASA's NSSDC Master Catalog

Two Line Element Set (TLE):
1 42232U 81053UY  22143.40586071  .00001311  00000-0  17077-2 0  9993
2 42232  83.0148 204.2873 0188724 189.9269 169.8128 13.54061764406461
Source of the keplerian elements: AFSPC